College Station, AR

2:20 PM CST on January 23, 2017 (GMT -0600)
Adams

Weather History for KLIT - March, 2013

Change the Weather History Date:

Saturday, March 2, 2013

  Actual Average Record
Temperature  
Mean Temperature 36 °F 49 °F  
Max Temperature 44 °F 59 °F 83 °F (2012)
Min Temperature 27 °F 39 °F 15 °F (1943)
Degree Days  
Heating Degree Days 29 16  
Month to date heating degree days 57 32  
Since 1 July heating degree days 2343 2545  
Cooling Degree Days 0 0  
Month to date cooling degree days 0 0  
Year to date cooling degree days 5 2  
Moisture  
Dew Point 22 °F    
Average Humidity 59    
Maximum Humidity 78    
Minimum Humidity 39    
Precipitation  
Precipitation 0.00 in 0.14 in 2.09 in (2014)
Month to date precipitation 0.00 0.28  
Year to date precipitation 9.56 7.49  
Snow  
Snow 0.00 in 0.00 in 5.20 in (1971)
Month to date snowfall 0.0 0.0  
Since 1 July snowfall 10.6 3.1  
Snow Depth 0.00 in    
Sea Level Pressure  
Sea Level Pressure 30.28 in    
Wind  
Wind Speed 8 mph (NNW)    
Max Wind Speed 17 mph    
Max Gust Speed 29 mph    
Visibility 10 miles    
Events      
T = Trace of Precipitation, MM = Missing Value Source: NWS Daily Summary

Daily Weather History Graph

Daily Weather History Graph

Search for Another Location

Airport or City:

Trip Planner

Search our weather history database for the weather conditions in past years. The results will help you decide how hot, cold, wet, or windy it might be!

Date:

Astronomy

Mar. 02, 2013 Rise Set
Actual Time 6:36 AM CST 6:05 PM CST
Civil Twilight 6:11 AM CST 6:31 PM CST
Nautical Twilight 5:41 AM CST 7:00 PM CST
Astronomical Twilight 5:12 AM CST 7:29 PM CST
Moon 11:30 PM CST (3/2) 9:19 AM CST (3/2)
Length of Visible Light 12h 20m
Length of Day
11h 29m
Waning Gibbous, 74% of the Moon is Illuminated
Mar 2
Waning Gibbous
Mar 4
Last Quarter
Mar 11
New
Mar 19
First Quarter
Mar 27
Full

Hourly Weather History & Observations

Time (CST) Temp. Windchill Dew Point Humidity Pressure Visibility Wind Dir Wind Speed Gust Speed Precip Events Conditions
12:53 AM 33.8 °F 24.8 °F 19.4 °F 56% 30.24 in 10.0 mi NNW 12.7 mph - N/A   Overcast
1:53 AM 33.1 °F 24.9 °F 19.9 °F 59% 30.25 in 10.0 mi NNW 10.4 mph - N/A   Overcast
2:53 AM 32.0 °F 24.2 °F 21.0 °F 64% 30.25 in 10.0 mi NNW 9.2 mph - N/A   Overcast
3:53 AM 32.0 °F 24.2 °F 21.9 °F 66% 30.25 in 10.0 mi NW 9.2 mph - N/A   Overcast
4:53 AM 32.0 °F 23.6 °F 23.0 °F 69% 30.25 in 10.0 mi NW 10.4 mph - N/A   Overcast
5:53 AM 32.0 °F 24.8 °F 24.1 °F 73% 30.27 in 10.0 mi NW 8.1 mph - N/A   Overcast
6:53 AM 33.1 °F 26.1 °F 24.1 °F 70% 30.28 in 10.0 mi NW 8.1 mph - N/A   Overcast
7:53 AM 34.0 °F 26.6 °F 23.0 °F 64% 30.30 in 10.0 mi NW 9.2 mph - N/A   Overcast
8:53 AM 34.0 °F 26.0 °F 23.0 °F 64% 30.32 in 10.0 mi NNW 10.4 mph - N/A   Overcast
9:53 AM 36.0 °F 28.5 °F 21.9 °F 57% 30.32 in 10.0 mi NW 10.4 mph - N/A   Overcast
10:53 AM 36.0 °F 28.0 °F 23.0 °F 59% 30.33 in 10.0 mi NNW 11.5 mph - N/A   Overcast
11:53 AM 37.0 °F 28.9 °F 21.9 °F 54% 30.32 in 10.0 mi NNW 12.7 mph - N/A   Overcast
12:53 PM 37.9 °F 30.9 °F 23.0 °F 55% 30.30 in 10.0 mi NNW 10.4 mph - N/A   Mostly Cloudy
1:53 PM 42.1 °F 34.9 °F 21.0 °F 43% 30.27 in 10.0 mi NW 13.8 mph 23.0 mph N/A   Mostly Cloudy
2:53 PM 41.0 °F 35.2 °F 19.9 °F 43% 30.27 in 10.0 mi NNW 9.2 mph 20.7 mph N/A   Scattered Clouds
3:53 PM 43.0 °F 36.8 °F 19.9 °F 40% 30.26 in 10.0 mi NNW 11.5 mph 17.3 mph N/A   Scattered Clouds
4:53 PM 43.0 °F 36.4 °F 19.9 °F 40% 30.26 in 10.0 mi NNW 12.7 mph - N/A   Partly Cloudy
5:53 PM 39.0 °F 32.8 °F 21.0 °F 49% 30.27 in 10.0 mi North 9.2 mph - N/A   Partly Cloudy
6:53 PM 35.1 °F 32.2 °F 19.9 °F 54% 30.29 in 10.0 mi NNE 3.5 mph - N/A   Clear
7:53 PM 37.0 °F 34.5 °F 19.9 °F 50% 30.29 in 10.0 mi ENE 3.5 mph - N/A   Clear
8:53 PM 33.1 °F - 19.9 °F 59% 30.30 in 10.0 mi Calm Calm - N/A   Clear
9:53 PM 30.0 °F - 24.1 °F 79% 30.30 in 10.0 mi Calm Calm - N/A   Clear
10:53 PM 28.9 °F - 21.0 °F 72% 30.30 in 10.0 mi Calm Calm - N/A   Clear
11:53 PM 28.0 °F - 21.0 °F 75% 30.30 in 10.0 mi Calm Calm - N/A   Clear